ONEWEB-0525 (54143 NORAD) Tracking and Keplerian Element Data

This shows tracking and keplerian element data for the satellite.

Feedback or suggestion? Click here.




ElementValue
Catalog54143
NameONEWEB-0525
Epoch Orbit526
Epoch Day325.33334491
Epoch Year2022
RAAN207.3896
Inclination87.4583
Eccentricity0.0013395
Argument of Perigee175.495
Mean Anonmoly12.412
Mean Motion14.69563359
Decay Rate-0.00985225
L11 54143U 22138AG 22325.33334491 -.00985225 00000+0 -17700+0 0 9993
L22 54143 87.4583 207.3896 0013395 175.4950 12.4120 14.69563359 5265



Live tracking and technical data element details for ONEWEB-0525 (NORAD 54143). ONEWEB-0525 can be tracked NOW for your location showing map with azimuth and elevation plus other details from your city location.







IsCatalogInMostPopularTable: catalog: 54143, numindb: 6
Update: records affected: 1



GetName: 54143 ONEWEB-0525

Hit Count: updated at: Sun, 04 Dec 2022 22:53:15 GMT